ECHOSTAR 19 (41893 NORAD) Tracking and Keplerian Element Data

This shows tracking and keplerian element data for the satellite.

Feedback or suggestion? Click here.




ElementValue
Catalog41893
NameECHOSTAR 19
Epoch Orbit1744
Epoch Day270.10295953
Epoch Year2021
RAAN135.0414
Inclination0.0118
Eccentricity0.0002171
Argument of Perigee62.2128
Mean Anonmoly108.8285
Mean Motion1.00273661
Decay Rate-1.4E-06
L11 41893U 16079A 21270.10295953 -.00000140 00000-0 00000+0 0 9999
L22 41893 0.0118 135.0414 0002171 62.2128 108.8285 1.00273661 17441

Live tracking and technical data element details for ECHOSTAR 19 (NORAD 41893). ECHOSTAR 19 can be tracked NOW for your location showing map with azimuth and elevation plus other details from your city location.

Track the satellite on the map from your city or location and see movement details for azimuth, elevation, latitude, longitude, range, height, and movement on the map or in text.







IsCatalogInMostPopularTable: catalog: 41893, numindb: 595
Update: records affected: 1



GetName: 41893 ECHOSTAR 19

Hit Count: updated at: Tue, 28 Sep 2021 16:16:24 GMT